星链-1581 (STARLINK-1581 )

导读

STARLINK-1581是美国SpaceX公司星链(Starlink)卫星互联网星座的一员,于2020年8月7日发射入轨。星链项目旨在通过部署数千颗低轨卫星,为全球提供高速低延迟互联网服务,覆盖偏远地区,同时可支持军事与应急通信。STARLINK-1581运行在近地轨道,作为第一代星链卫星,为星座全球覆盖能力建设提供支撑,是星链大规模组网进程中重要组成部分,该卫星的成功入轨进一步推进了星链星座的部署进程,助力实现全球互联的目标。

Basic Information
目录编号:
46042
目录名称:
STARLINK-1581
国际标识:
2020-055R
轨道中心:
EARTH
卫星名称:
星链-1581
卫星全名:
星链-1581 (STARLINK-1581 )
卫星状态:
已陨落 最后检测时间 2025-03-26
发射日期:
2020-08-07 UTC
国别 :
美国 (US)
星等 :
--
Orbit Information
数据来源 国际轨道数据
星历时间: 2025-03-26T21:07:02+0800
轨道信息已过期443天
半长轴: 6562.892km
偏心率: 0.0011061
轨道倾角: 53.036°
近地点辐角 325.006°
升交点赤经 211.857°
平近点角 134.065°
近地点: 177.497km
远地点: 192.017km
周期: 88.187分钟
每日圈数: 16.329014
Detailed Information
固有亮度:
5
最大亮度:
2.5
卫星平台:
Starlink V1.0
覆盖范围:
全球
运营商:
太空探索技术公司
运营商所在国:
美国
制造商(研发单位):
太空探索技术公司
制造商所在国:
美国
使用方式:
暂无
Satellite Introduction
星链(Starlink)计划是由太空探索技术公司(SpaceX)提出的一个巨型低轨卫星互联网星座项目,计划在2019年至2024年间在太空搭建由约1.2万颗卫星组成的“星链”网络,其中1584颗将部署在地球上空550千米处的近地轨道,并从2020年开始工作。该卫星仍在工作。